Погода в Витине

Чехия     49°05′18″N   14°32′37″E
темп.,
°C
ветер,
м/с
пор.,
м/с
влажн.,
%
обл.,
%
осадки,
мм/ч
давл.,
гПа
погр.,
м
18 мая, ср
ср1823:00+11с119417 0.0 102310
02:00+10всв11945 0.0 102410
05:00+9вюв11945 0.0 102510
08:00+12юв23855 0.0 1026272
11:00+17юв446019 0.0 1026968
14:00+19вюв44525 0.0 10261398
17:00+19вюв55545 0.0 10251127
20:00+13вюв49655 0.0 1026213
19 мая, чт
чт1923:00+9юв246452 0.0 102770
02:00+7юв22665 0.0 102728
05:00+6вюв22715 0.0 102614
08:00+11вюв236840 0.0 1026203
11:00+18вюв345377 0.0 1024550
14:00+23вюв3445100 0.0 1023773
17:00+23вюв4655100 0.0 1021416
20:00+17юв3673100 0.0 1022102
20 мая, пт
пт2023:00+14ююз1182100 0.0 102312
02:00+15ю118599 0.0 102312
05:00+15ю1190100 1.1 102312
08:00+19ююз12815 1.1 1024119
11:00+24зсз135738 0.0 1023882
14:00+27ссв124765 0.0 10211531
17:00+27с12485 0.0 10191095
20:00+23ю12665 0.0 101811
21 мая, сб
сб2123:00+19ююз227496 0.0 101821
02:00+18ююз3476100 0.0 101557
05:00+19зюз51371100 0.0 1014311
08:00+21з71474100 0.1 10161267
11:00+20зсз914583 0.4 10181810
14:00+20сз91449100 0.4 10191889
17:00+18сз7115612 0.0 10191460
20:00+15зсз496658 0.0 1020291
22 мая, вс
вс2223:00+12з396874 0.0 1021184
02:00+10зюз33765 0.0 102142
05:00+9зсз23840 0.0 102151
08:00+13сз47720 0.0 1021572
11:00+16сз46540 0.0 10201110
14:00+19сз454265 0.0 10181262
17:00+20ссз344187 0.0 10171269
20:00+15всв356758 0.0 101778